Terminal Aerodrome Forecast
Issued by NWS

Home | Current Version | Previous Version | Text Only | Print | Product List | Glossary On
Versions: 1 2 3 4 5 6 7 8 9 10 11 12 13 14 15 16 17 18
000
FTAK31 PAJN 300647 AAA
TAFAGY
TAF AMD
PAGY 300647Z 3007/0106 03010KT P6SM BKN090 WS020/02025KT
      TEMPO 3007/3011 03015G25KT -SHRA
     FM302100 02020G30KT P6SM SKC WS020/02025KT
      AMD LTD TO CLD VIS AND WIND=

USA.gov is the U.S. government's official web portal to all federal, state and local government web resources and services.